Regional Weather Roundup
Issued by NWS

Home | Current Version | Previous Version | Graphics & Text | Print | Product List | Glossary On
Versions: 1 2 3 4 5 6 7 8 9 10 11 12 13 14 15 16 17 18 19 20 21 22 23 24 25 26 27 28 29 30 31 32 33 34 35 36 37 38 39 40 41 42 43 44 45 46 47 48 49 50
763
ASUS45 KTFX 182010
RWRMT
MONTANA REGIONAL WEATHER ROUNDUP
NATIONAL WEATHER SERVICE GREAT FALLS MT
100 PM MST SAT FEB 18 2017

NOTE: "FAIR" INDICATES FEW OR NO CLOUDS BELOW 12000 FEET WITH NO
SIGNIFICANT WEATHER AND/OR OBSTRUCTIONS TO VISIBILITY.

MTZ001>007-043-182100-
WEST OF THE DIVIDE

CITY           SKY/WX    TMP DP  RH WIND       PRES   REMARKS
KALISPELL      FLURRIES  35  30  82 N9        29.45F WCI  28
MISSOULA       PTSUNNY   37  31  78 W6        29.43F
BUTTE          CLOUDY    43  29  57 S15       29.50F
MULLAN PASS    SNOW      29  29 100 VRB6      29.36F VSB 1/2 WCI  23
ANACONDA         N/A     48  28  46 S8        29.47F
DEER LODGE       N/A     48  32  53 S10       29.48F
EUREKA           N/A     32  27  80 CALM      29.49F
HAMILTON         N/A     50  32  50 S5        29.42F
LIBBY            N/A     36  32  87 CALM      29.44F
PLAINS           N/A     35  27  73 CALM      29.48F
RONAN            N/A     36  29  76 N2        29.53F
THOMPSON FALLS   N/A     36  32  85 W1        29.51F
$$

MTZ008-052>055-182100-
SOUTHWEST MONTANA

CITY           SKY/WX    TMP DP  RH WIND       PRES   REMARKS
BOZEMAN        CLOUDY    39  31  72 SE5       29.51F
DILLON         CLOUDY    47  29  49 S21G30    29.49F
W YELLOWSTONE  CLOUDY    36  32  87 S15       29.64F WCI  26
ENNIS          MOSUNNY   48  30  49 S30G43    29.56F
THREE FORKS      N/A     56  56 100 S17       29.54F
TWIN BRIDGES     N/A     50  29  44 SE16      29.55F
$$

MTZ009-010-012-014-046-048-049-054-182100-
EAST SLOPES AND CENTRAL MONTANA

CITY           SKY/WX    TMP DP  RH WIND       PRES   REMARKS
CUT BANK       PTSUNNY   38  28  67 CALM      29.46F
GREAT FALLS    CLOUDY    49  28  44 VRB3      29.46F
MALMSTROM AFB  PTSUNNY   50  29  45 E6        29.46F
HELENA         CLOUDY    40  31  70 NW6       29.46F
AUGUSTA          N/A     44  30  59 S7        29.44F
BOWMANS CRNR     N/A     48  29  47 S24       29.41F
CHOTEAU          N/A     45  30  57 SE7       29.46
CONRAD           N/A     40  34  79 CALM      29.54F
POWER          PTSUNNY   47  30  52 SE6       29.45F
RAYNESFORD     PTSUNNY   54  29  37 N5        29.46F
ULM            PTSUNNY   49  30  47 MISG      29.45F
$$

MTZ011-013-016-021-045-047-050-051-182100-
NORTH CENTRAL MONTANA

CITY           SKY/WX    TMP DP  RH WIND       PRES   REMARKS
HAVRE          PTSUNNY   44  32  62 E16       29.51F
LEWISTOWN      SUNNY     56  27  32 SW10G17   29.50S
N BAR RANCH      N/A     52  27  37 S16       29.54S
CHINOOK          N/A     43  30  61 E14G20    29.54S
DENTON         PTSUNNY   50  29  44 NE15G21   29.46F
FORT BENTON      N/A     54  30  40 MISG      29.48F
GEYSER           N/A     52  28  39 NE10      29.47F
GRASS RANGE      N/A     49  25  39 N6        29.48F
JUDITH GAP       N/A     49  28  44 S12       29.50F
ROY              N/A     48  31  52 MISG      29.50F
STANFORD       PTSUNNY   53  27  36 W13       29.47F
WINIFRED         N/A     47  27  44 E13       29.50F
$$

MTZ017>020-022>027-061-062-182100-
NORTHEAST MONTANA

CITY           SKY/WX    TMP DP  RH WIND       PRES   REMARKS
GLASGOW        CLOUDY    41  33  73 E17       29.59F
JORDAN           N/A     49  31  49 E10       29.55F
SIDNEY         CLOUDY    39  33  79 NE12      29.64F WCI  32
WOLF POINT     CLOUDY    37  32  82 E13       29.64F WCI  29
PLENTYWOOD       N/A     37  32  81 E12       29.68S WCI  30
POPLAR           N/A     36  30  80 NE9       29.65F WCI  29
SCOBEY           N/A     44  30  58 E6        29.65F
$$

MTZ028>42-056>058-182100-
SOUTHCENTRAL AND SOUTHEAST MONTANA

CITY           SKY/WX    TMP DP  RH WIND       PRES   REMARKS
BAKER          MOSUNNY   50  31  48 E10       29.57S
BILLINGS       CLOUDY    51  29  42 CALM      29.53F
LIVINGSTON     SUNNY     57  29  34 SW29G37   29.49F
MILES CITY     SUNNY     49  29  46 CALM      29.55F
BIG TIMBER     SUNNY     52  28  40 E9        29.53F
EKALAKA          N/A     49  29  46 SW8       29.58S
FORSYTH          N/A     50  32  50 CALM      29.54F
HARLOWTON        N/A     49  27  43 CALM      29.51F
LAUREL           N/A     53  29  40 NE2       29.56F
$$

REGIONAL REPORTS...DAKOTAS

CITY           SKY/WX    TMP DP  RH WIND       PRES   REMARKS
WILLISTON      CLOUDY    42  32  67 NE6       29.68F
MINOT          CLOUDY    41  33  73 N3        29.71F
DICKINSON      MOSUNNY   44  31  60 E16       29.59F
BEACH            N/A    N/A N/A N/A MISG        N/A
CROSBY           N/A     32  32 100 NE8       29.72S WCI  25
TIOGA            N/A     37  37 100 E13       29.70F WCI  29
WATFORD CITY     N/A     37  32  81 NE10      29.66F WCI  30
BISMARCK       MOSUNNY   36  32  85 E6        29.70F WCI  31
GRAND FORKS    CLOUDY    41  31  67 W9        29.73R
FARGO          SUNNY     46  38  73 W5        29.74F
BUFFALO SD       N/A     60  33  36 SW18G25   29.48F
RAPID CITY     SUNNY     65  30  27 S18G26    29.59F
$$

REGIONAL REPORTS...WYOMING/IDAHO/WASHINGTON

CITY           SKY/WX    TMP DP  RH WIND       PRES   REMARKS
GILLETTE       CLOUDY    58  29  33 SW15G25   29.58F
SHERIDAN       CLOUDY    50  30  46 MISG      29.57F
BUFFALO WY     CLOUDY    50  30  46 N8        29.59F
CODY           CLOUDY    49  28  44 SE12      29.57F
YELLOWSTONE LA   N/A     34  31  88 VRB5      29.67F
IDAHO FALLS    CLOUDY    46  36  68 S14       29.61F
SALMON         CLOUDY    39  30  70 N5        29.49F
BOISE          LGT RAIN  49  41  74 E20       29.45F
SPOKANE        CLOUDY    36  32  85 NE7       29.37F WCI  30
$$

REGIONAL REPORTS...ALBERTA

CITY           SKY/WX    TMP DP  RH WIND       PRES   REMARKS
EDMONTON       CLOUDY    37  30  75 E6        29.60F
LETHBRIDGE     CLOUDY    34  30  86 CALM      29.49F
MEDICINE HAT   LGT RAIN  45  30  57 E12       29.53F
WATERTON GATE    N/A     36  23  60 NE2         N/A
CARDSTON         N/A     37  25  60 N2          N/A
MILK RIVER       N/A     39  34  81 E6          N/A
$$

REGIONAL REPORTS...SASKATCHEWAN

CITY           SKY/WX    TMP DP  RH WIND       PRES   REMARKS
SWIFT CURRENT  PTSUNNY   37  32  81 E14       29.62S WCI  29
REGINA         CLOUDY    36  30  80 S3        29.70F
SASKATOON      PTSUNNY   39  32  75 VRB2      29.72S
CYPRESS HILLS    N/A     37  23  56 SE12G17     N/A  WCI  30
VAL MARIE        N/A     43  32  65 E12         N/A
ROCKGLEN         N/A     41  34  75 E9          N/A
$$




USA.gov is the U.S. government's official web portal to all federal, state and local government web resources and services.